Hourly Data Report for October 27, 2016

All times are specified in Local Standard Time (LST). Add 1 hour to adjust for Daylight Saving Time where and when it is observed.

CHARLOTTETOWN A
PRINCE EDWARD ISLAND

46°17'21.000" N
63°07'09.000" W
48.50 m
8300301
71706
YYG

Download Data

Hourly Data (October 2016)
Hourly Data Report for October 27, 2016
Temp Definition
°C
Dew Point Temp Definition
°C
Rel Hum Definition
%
Wind Dir Definition
10's deg

Wind Spd Definition
km/h
Visibility Definition
km
Stn Press Definition
kPa
Hmdx Definition


Wind Chill Definition


Weather Definition


TIME
00:00 Legend Double Dagger 4.4 1.4 81 1 19 24.1 102.02     LegendNANA
01:00 Legend Double Dagger 4.6 1.8 82 1 26 24.1 102.09     LegendNANA
02:00 Legend Double Dagger 4.1 1.7 84 2 18 24.1 102.15     Mostly Cloudy
03:00 Legend Double Dagger 4.1 1.1 81 3 24 24.1 102.19     LegendNANA
04:00 Legend Double Dagger 3.9 1.5 84 2 15 24.1 102.24     LegendNANA
05:00 Legend Double Dagger 3.7 0.4 79 2 30 24.1 102.30     Mostly Cloudy
06:00 Legend Double Dagger 3.1 0.5 83 36 11 24.1 102.36     LegendNANA
07:00 Legend Double Dagger 2.5 0.7 88 35 9 24.1 102.40     LegendNANA
08:00 Legend Double Dagger 3.8 -0.2 75 35 12 24.1 102.50     Mostly Cloudy
09:00 Legend Double Dagger 3.6 1.2 84 2 17 24.1 102.54     LegendNANA
10:00 Legend Double Dagger 4.6 1.3 79 33 16 24.1 102.60     Rain Showers
11:00 Legend Double Dagger 4.8 -1.0 66 2 22 24.1 102.62     Mostly Cloudy
12:00 Legend Double Dagger 5.2 -2.2 59 34 21 24.1 102.61     LegendNANA
13:00 Legend Double Dagger 4.8 -2.1 61 35 18 24.1 102.60     LegendNANA
14:00 Legend Double Dagger 5.0 -3.5 54 35 10 24.1 102.60     Mostly Cloudy
15:00 Legend Double Dagger 5.2 -3.4 54 1 11 24.1 102.61     LegendNANA
16:00 Legend Double Dagger 4.3 -3.2 58 2 14 24.1 102.62     LegendNANA
17:00 Legend Double Dagger 3.5 -2.5 65 2 9 24.1 102.65     Mostly Cloudy
18:00 Legend Double Dagger 2.7 -1.7 73 2 8 24.1 102.68     LegendNANA
19:00 Legend Double Dagger 2.6 -1.4 75 34 8 24.1 102.71     LegendNANA
20:00 Legend Double Dagger 2.4 -1.4 76 4 6 24.1 102.74     Cloudy
21:00 Legend Double Dagger 0.2 -2.0 85 34 4 24.1 102.76     LegendNANA
22:00 Legend Double Dagger -0.4 -1.7 91 28 6 24.1 102.74   -2 LegendNANA
23:00 Legend Double Dagger -0.3 -2.2 87 36 1 24.1 102.75   -1 Mostly Cloudy

Notes on Data Quality.

Legend

  • E = Estimated
  • M = Missing
  • NA = Not Available
  • ‡ = Partner data that is not subject to review by the National Climate Archives
Date modified: